565  
SXUS52 KCHS 181612  
OSOCHS  
 
MARINE OBSERVATIONS  
NATIONAL WEATHER SERVICE CHARLESTON SC  
1200 PM EDT FRI AUG 18 2017  
   
..DOWNTOWN CHARLESTON AND HARBOR
 
 
 
CITY SKY/WX TMP DP RH WIND PRES REMARKS  
WATERFRONT PRK N/A 90 76 63 W5 29.84S HX 101  
   
..LAKE MOULTRIE
 
 
 
CITY SKY/WX TMP DP RH WIND PRES REMARKS  
PINOPOLIS N/A 90 79 70 CALM 29.91F HX 105  
   
..LAKE AND SUPPLEMENTAL COASTAL OBSERVATIONS
 
 
 
STATION/POSITION TIME TEMP WIND PRES WAVE SWELL  
AIR SEA DIR/SP/G HT/PER HT/PER/DIR  
(UTC) (F) (DEG/KT/KT) (MB) (FT/S) (FT/S/D)  
FORT PULASKI 1536 88 86 280/ 6/ 7 1016.2F  
SAPELO ISLAND 1500 91 330/ 4 1016.0  
WINYAH BAY 1445 88 280/ 6 1015.0  
LAKE MURRAY 1520 87 270/ 11/ 17 1013.2  
ACE BASIN NERRS 1445 89 300/ 2 1016.0  
 
   
..C-MAN AND BUOY OBSERVATIONS
 
 
 
STATION/POSITION TIME TEMP WIND PRES WAVE SWELL  
AIR SEA DIR/SP/G HT/PER HT/PER/DIR  
(UTC) (F) (DEG/KT/KT) (MB) (FT/S) (FT/S/D)  
BUOY 41004 1550 84 85 230/ 12/ 14 1015.6F 3/ 5 2/140/ 8  
BUOY 41008 1550 83 85 170/ 6/ 8 1016.3F 1/ 8 2/100/ 8  
FOLLY BEACH CMAN 1600 91 50/ 2/ 3 1016.0F  
CAPERS NS BUOY 1508 88 86 270/ 4/ 6 1015.7S  
FRIPP NS BUOY 1508 88 340/ 4/ 6 1015.7S  
5E ST. MARYS GA 1600 85 N/A 1/ 8  
 
 
STATION/POSITION TIME TEMP WIND PRES WAVE SWELL  
AIR SEA DIR/SP/G HT/PER HT/PER/DIR  
(UTC) (F) (DEG/KT/KT) (MB) (FT/S) (FT/S/D)  
FRYING PAN BUOY 1600 84 84 220/ 12/ 16 1015.3  
BUOY 41025 1550 85 85 220/ 12/ 14 1015.0R 2/ 5 2/ 70/ 8  
CAPE LOOKOUT NC 1600 85 220/ 12/ 15 1014.3F  
BUOY 41002 1550 84 85 240/ 10/ 12 1017.5S 3/ 5 2/ 80/ 8  
BUOY 41010 1600 84 86 270/ 6/ 8 1017.6  
ST AUGUSTINE FL 1600 82 82 130/ 11/ 11 1016.8F  
 

 
 
 
CLICK HERE TO GO TO PREVIOUS BULLETINS.

The Nexlab SC Page
The Nexlab GA Page Main Text Page